This is the latest recevied weather packets stored in our database for station/object CE4JVU-10. If no packets are shown the sender has not sent any weather packets the latest 10 day(s).
| Time | Temp. | Humidity | Pressure | Rain* | Wind** | Luminosity | Snow |
|---|---|---|---|---|---|---|---|
| 1787787401 | 17.78° C | 68% | 978.9 hPa | - | - | - | - |
| 1787786501 | 17.78° C | 67% | 978.6 hPa | - | - | - | - |
| 1787785601 | 17.78° C | 68% | 978.6 hPa | - | - | - | - |
| 1787784701 | 17.22° C | 70% | 978.6 hPa | - | - | - | - |
| 1787783801 | 17.78° C | 69% | 978.5 hPa | - | - | - | - |
| 1787782900 | 17.78° C | 68% | 978.6 hPa | - | - | - | - |
| 1787782000 | 17.78° C | 67% | 978.1 hPa | - | - | - | - |
| 1787781100 | 18.33° C | 67% | 978.2 hPa | - | - | - | - |
| 1787780200 | 17.78° C | 68% | 978.1 hPa | - | - | - | - |
| 1787779300 | 17.78° C | 68% | 978 hPa | - | - | - | - |
| 1787778400 | 17.78° C | 68% | 978 hPa | - | - | - | - |
| 1787777500 | 17.78° C | 68% | 978 hPa | - | - | - | - |
| 1787776599 | 17.78° C | 67% | 978 hPa | - | - | - | - |
| 1787775699 | 17.78° C | 67% | 978 hPa | - | - | - | - |
| 1787774801 | 17.78° C | 67% | 977.9 hPa | - | - | - | - |
| 1787773901 | 17.78° C | 67% | 977.7 hPa | - | - | - | - |
| 1787773001 | 17.78° C | 67% | 977.7 hPa | - | - | - | - |
| 1787772101 | 17.78° C | 67% | 977.6 hPa | - | - | - | - |
| 1787771201 | 17.78° C | 67% | 977.9 hPa | - | - | - | - |
| 1787770301 | 17.78° C | 66% | 977.7 hPa | - | - | - | - |
| 1787769400 | 17.22° C | 69% | 977.8 hPa | - | - | - | - |
| 1787768500 | 16.67° C | 67% | 977.9 hPa | - | - | - | - |
| 1787767600 | 17.22° C | 68% | 977.9 hPa | - | - | - | - |
| 1787766700 | 17.22° C | 67% | 978 hPa | - | - | - | - |
| 1787765800 | 16.67° C | 68% | 978 hPa | - | - | - | - |
* Rain since midnight (hover to see other rain measurements)
** Current wind speed in m/s (hover to see current wind gust speed)